Regional Weather Roundup
Issued by NWS

Home | Current Version | Previous Version | Graphics & Text | Print | Product List | Glossary Off
Versions: 1 2 3 4 5 6 7 8 9 10 11 12 13 14 15 16 17 18 19 20 21 22 23 24 25 26 27 28 29 30 31 32 33 34 35 36 37 38 39 40 41 42 43 44 45 46 47 48 49 50

000
ASUS43 KTOP 191359
RWRKS

WEATHER ROUNDUP FOR KANSAS
NATIONAL WEATHER SERVICE GOODLAND KS
900 AM CDT TUE SEP 19 2017

NOTE:  "FAIR" INDICATES FEW OR NO CLOUDS BELOW 12,000 FEET WITH NO
SIGNIFICANT WEATHER AND/OR OBSTRUCTIONS TO VISIBILITY.

KSZ001>006-013>018-027>032-041>047-191500-
NORTHWEST KANSAS

CITY           SKY/WX    TMP DP  RH WIND       PRES   REMARKS
GOODLAND       SUNNY     61  58  90 SW8       29.71S
HAYS           SUNNY     73  63  70 S15G22    29.73F
HILL CITY      SUNNY     70  64  81 S14       29.72F
RUSSELL        SUNNY     72  63  73 S24       29.73F
$$

KSZ061>065-074>080-084>089-191500-
SOUTHWEST KANSAS

CITY           SKY/WX    TMP DP  RH WIND       PRES   REMARKS
DODGE CITY     SUNNY     70  63  78 S14G21    29.78R
ELKHART          N/A     63  52  67 S13         N/A
GARDEN CITY    SUNNY     65  62  90 S9        29.75F
GREAT BEND     SUNNY     73  64  73 S21       29.76F
LIBERAL        SUNNY     67  62  84 S14       29.80R
$$

KSZ066>073-081>083-090>101-191500-
SOUTHEAST KANSAS

CITY           SKY/WX    TMP DP  RH WIND       PRES   REMARKS
CHANUTE        SUNNY     72  66  81 S10       29.89S
COFFEYVILLE    CLOUDY    73  68  84 SE8       29.88F
HUTCHINSON     SUNNY     74  67  78 S12G21    29.79F
MEDICINE LODGE   N/A     72  65  78 S8        29.79F
NEWTON         SUNNY     72  66  81 S13       29.83F
WICHITA INTL   MOSUNNY   74  67  78 S14       29.81F
WICHITA JABRA  SUNNY     73  67  81 S14       29.82F
WINFIELD       CLOUDY    72  69  90 SE7       29.85S
$$

KSZ007>012-019>026-033>040-048>060-102>105-191500-
NORTHEAST KANSAS

CITY           SKY/WX    TMP DP  RH WIND       PRES   REMARKS
CONCORDIA      SUNNY     72  66  81 S17       29.77F
EMPORIA        SUNNY     71  65  81 S10       29.85F
LAWRENCE       PTSUNNY   68  67  96 E7        29.88R
MANHATTAN      SUNNY     76  66  71 S6        29.81F
OLATHE IND     MOSUNNY   68  66  93 SE8       29.91R
OLATHE EXE     CLOUDY    67  67 100 MISG      29.91R
SALINA         SUNNY     77  65  66 S17G28    29.77F
TOPEKA BILLARD SUNNY     72  68  87 SE7       29.85F
TOPEKA FORBES  SUNNY     72  68  87 SE8       29.86F
$$




USA.gov is the U.S. government's official web portal to all federal, state and local government web resources and services.